Wautoma, WI

2:07 PM CST on January 19, 2018 (GMT -0600)
Wautoma

Weather History for KY50 - May, 2014

Change the Weather History Date:

Friday, May 16, 2014

  Actual Average (KPCZ) Record (KPCZ)
Temperature  
Mean Temperature 40 °F -  
Max Temperature 52 °F 71 °F 89 °F (1962)
Min Temperature 29 °F 45 °F 29 °F (1956)
Degree Days  
Heating Degree Days 24    
Moisture  
Dew Point 28 °F    
Average Humidity 59    
Maximum Humidity 92    
Minimum Humidity 34    
Precipitation  
Precipitation 0.00 in - - ()
Sea Level Pressure  
Sea Level Pressure 30.05 in    
Wind  
Wind Speed 3 mph (NW)    
Max Wind Speed 13 mph    
Max Gust Speed 17 mph    
Visibility 10 miles    
Events      
Averages and records for this station are not official NWS values.
T = Trace of Precipitation, MM = Missing Value Source: NWS Daily Summary

Daily Weather History Graph

Daily Weather History Graph

Search for Another Location

Airport or City:

Trip Planner

Search our weather history database for the weather conditions in past years. The results will help you decide how hot, cold, wet, or windy it might be!

Date:

Astronomy

May. 16, 2014 Rise Set
Actual Time 5:29 AM CDT 8:17 PM CDT
Civil Twilight 4:56 AM CDT 8:51 PM CDT
Nautical Twilight 4:14 AM CDT 9:34 PM CDT
Astronomical Twilight 3:24 AM CDT 10:23 PM CDT
Moon 10:24 PM CDT (5/16) 7:11 AM CDT (5/16)
Length of Visible Light 15h 55m
Length of Day
14h 47m
Waning Gibbous, 95% of the Moon is Illuminated
May 16
Waning Gibbous
May 21
Last Quarter
May 28
New
Jun 5
First Quarter
Jun 12
Full

Hourly Weather History & Observations

Time (CDT) Temp. Windchill Dew Point Humidity Pressure Visibility Wind Dir Wind Speed Gust Speed Precip Events Conditions
12:56 AM 39.9 °F - 27.1 °F 60% 30.08 in 10.0 mi Calm Calm - N/A   Overcast
1:56 AM 34.0 °F - 29.1 °F 82% 30.07 in 10.0 mi Calm Calm - N/A   Clear
2:56 AM 31.1 °F - 27.1 °F 85% 30.06 in 10.0 mi Calm Calm - N/A   Clear
3:56 AM 30.0 °F - 28.0 °F 92% 30.06 in 10.0 mi Calm Calm - N/A   Clear
4:56 AM 29.1 °F - 27.1 °F 92% 30.05 in 10.0 mi Calm Calm - N/A   Clear
5:56 AM 29.1 °F - 27.1 °F 92% 30.06 in 10.0 mi Calm Calm - N/A   Clear
6:56 AM 33.8 °F - 28.4 °F 81% 30.06 in 10.0 mi Calm Calm - N/A   Clear
7:56 AM 41.0 °F - 28.0 °F 60% 30.06 in 10.0 mi Calm Calm - N/A   Clear
8:56 AM 45.0 °F 41.8 °F 26.1 °F 48% 30.05 in 10.0 mi NNE 5.8 mph - N/A   Clear
9:56 AM 45.9 °F 42.3 °F 25.2 °F 44% 30.04 in 10.0 mi North 6.9 mph - N/A   Partly Cloudy
10:56 AM 46.9 °F - 26.1 °F 44% 30.03 in 10.0 mi NNW 9.2 mph - N/A   Overcast
11:56 AM 47.8 °F - 26.1 °F 43% 30.04 in 10.0 mi NW 6.9 mph - N/A   Mostly Cloudy
12:56 PM 48.2 °F - 24.8 °F 40% 30.03 in 10.0 mi NW 12.7 mph 17.3 mph N/A   Mostly Cloudy
1:56 PM 50.0 °F - 26.1 °F 39% 30.04 in 10.0 mi WNW 11.5 mph - N/A   Mostly Cloudy
3:56 PM 51.8 °F - 24.8 °F 35% 30.01 in 10.0 mi North 9.2 mph - N/A   Mostly Cloudy
4:56 PM 52.0 °F - 26.1 °F 37% 30.03 in 10.0 mi West 12.7 mph - N/A   Overcast
5:56 PM 52.0 °F - 24.1 °F 34% 30.03 in 10.0 mi NW 8.1 mph - N/A   Overcast
6:56 PM 50.0 °F - 28.4 °F 43% 30.02 in 10.0 mi Calm Calm - N/A   Overcast
7:56 PM 48.9 °F - 30.0 °F 48% 30.04 in 10.0 mi NW 10.4 mph - N/A   Mostly Cloudy
8:56 PM 45.9 °F 42.9 °F 31.1 °F 56% 30.06 in 10.0 mi SW 5.8 mph - N/A   Mostly Cloudy
9:56 PM 43.9 °F - 32.0 °F 63% 30.06 in 10.0 mi Calm Calm - N/A   Overcast
10:56 PM 43.9 °F - 32.0 °F 63% 30.06 in 10.0 mi Calm Calm - N/A   Overcast
11:56 PM 41.9 °F - 34.0 °F 73% 30.06 in 10.0 mi Calm Calm - N/A   Overcast